User: anonymous   Login
Location: Unspecified
(0.0000°N, 0.0000°E)
Time: 22:24:58
(UTC+00:00)
Language:

Kosmos-2191 - Orbit

View from above orbital plane
View from above orbital plane
View from above satellite
View from above satellite

Ground track
Ground track

The orbit data is extracted from the following two-line orbital elements,

1 21980U 92030E   18167.90389344 -.00000025 +00000-0 -69226-4 0  9995
2 21980 074.0033 344.8592 0018184 142.2914 013.3631 12.44529527182592
Epoch (UTC): 16 June 2018 21:41:36
Eccentricity: 0.0018184
inclination: 74.0033°
perigee height: 1473 km
apogee height: 1502 km
right ascension of ascending node: 344.8592°
argument of perigee: 142.2914°
revolutions per day: 12.44529527
mean anomaly at epoch: 13.3631°
orbit number at epoch: 18259

The dashed part of the orbit path shows where the satellite is in the earth's shadow,  

DLR